[Date Prev][Date Next][Thread Prev][Thread Next] - [Date Index][Thread Index][Author Index]
2 Line ISS Keps 8-7
- Subject: [sarex] 2 Line ISS Keps 8-7
- From: "Dave Larsen PhD" <doc@xxxxxxxxxxx>
- Date: Sat, 6 Aug 2005 22:51:06 -0700
ISS
1 25544U 98067A 05219.14461806 .00039963 00000-0 30881-3 0 957
2 25544 051.6421 359.9942 0002164 190.1180 170.1738 15.71492614383703
----
Via the sarex mailing list at AMSAT.ORG courtesy of AMSAT-NA.
To unsubscribe, send "unsubscribe sarex" to Majordomo@amsat.org
AMSAT Home